,,,PA_Meas_PMT16A,,PR_Meas_QMR101_102,,RH_Meas_QMH101,,SR_Meas_QMS101,,TA_Meas_QMH101,,GenWind,,GenWind,
date,time,status,PA,status,PR,status,RH,status,SR,status,TA,status,DirAvg,status,SpdAvg,
2014-11-02, 00:00:04,VALID,1009.03,VALID,0,INVALID,120.258,VALID,0,VALID,24.0837,VALID,61,VALID,0,
2014-11-02, 00:01:04,VALID,1009.03,VALID,0,INVALID,119.564,VALID,0,VALID,24.0837,VALID,61,VALID,0,
2014-11-02, 00:02:04,VALID,1009.01,VALID,0,INVALID,119.061,VALID,0,VALID,24.1032,VALID,61,VALID,0,
2014-11-02, 00:03:04,VALID,1009.01,VALID,0,INVALID,118.878,VALID,0,VALID,24.0837,VALID,61,VALID,0,
2014-11-02, 00:04:04,VALID,1009.03,VALID,0,INVALID,118.809,VALID,0,VALID,24.0643,VALID,61,VALID,0,
2014-11-02, 00:05:04,VALID,1009.01,VALID,0,INVALID,119.13,VALID,0,VALID,24.0837,VALID,61,VALID,0,
2014-11-02, 00:06:04,VALID,1009.04,VALID,0,INVALID,119.984,VALID,0,VALID,24.1032,VALID,61,VALID,0,
2014-11-02, 00:07:04,VALID,1009.03,VALID,0,INVALID,119.846,VALID,0,VALID,24.1032,VALID,61,VALID,0,
2014-11-02, 00:08:04,VALID,1009.02,VALID,0,INVALID,119.862,VALID,0,VALID,24.0837,VALID,61,VALID,0,
2014-11-02, 00:09:04,VALID,1009.03,VALID,0,INVALID,119.64,VALID,0,VALID,24.0837,VALID,61,VALID,0,
2014-11-02, 00:10:04,VALID,1009,VALID,0,INVALID,118.847,VALID,0,VALID,24.0643,VALID,61,VALID,0,
2014-11-02, 00:11:04,VALID,1009.01,VALID,0,INVALID,117.986,VALID,0,VALID,24.0643,VALID,61,VALID,0,
2014-11-02, 00:12:04,VALID,1008.99,VALID,0,INVALID,117.254,VALID,0,VALID,24.0448,VALID,61,VALID,0,
2014-11-02, 00:13:04,VALID,1008.97,VALID,0,INVALID,116.933,VALID,0,VALID,24.0448,VALID,61,VALID,0,
2014-11-02, 00:14:04,VALID,1008.95,VALID,0,INVALID,116.697,VALID,0,VALID,24.0448,VALID,61,VALID,0,
2014-11-02, 00:15:04,VALID,1008.96,VALID,0,INVALID,116.689,VALID,0,VALID,24.0235,VALID,61,VALID,0,
2014-11-02, 00:16:04,VALID,1008.91,VALID,0,INVALID,116.827,VALID,0,VALID,24.0253,VALID,61,VALID,0,
2014-11-02, 00:17:04,VALID,1008.92,VALID,0,INVALID,117.063,VALID,0,VALID,24.0253,VALID,61,VALID,0,
2014-11-02, 00:18:04,VALID,1008.89,VALID,0,INVALID,117.368,VALID,0,VALID,24.0253,VALID,61,VALID,0,
2014-11-02, 00:19:04,VALID,1008.9,VALID,0,INVALID,117.604,VALID,0,VALID,24.0253,VALID,61,VALID,0,
2014-11-02, 00:20:04,VALID,1008.89,VALID,0,INVALID,118.458,VALID,0,VALID,24.0253,VALID,61,VALID,0,
2014-11-02, 00:21:04,VALID,1008.86,VALID,0,INVALID,119.572,VALID,0,VALID,24.0448,VALID,61,VALID,0,
2014-11-02, 00:22:04,VALID,1008.87,VALID,0,INVALID,119.602,VALID,0,VALID,24.0235,VALID,61,VALID,0,
2014-11-02, 00:23:04,VALID,1008.83,VALID,0,INVALID,119.503,VALID,0,VALID,24.0253,VALID,61,VALID,0,
2014-11-02, 00:24:04,VALID,1008.83,VALID,0,INVALID,119.61,VALID,0,VALID,24.0253,VALID,61,VALID,0,
2014-11-02, 00:25:04,VALID,1008.81,VALID,0,INVALID,120.167,VALID,0.112112,VALID,24.0448,VALID,61,VALID,0,
2014-11-02, 00:26:04,VALID,1008.8,VALID,0,INVALID,120.83,VALID,0,VALID,24.0253,VALID,61,VALID,0,
2014-11-02, 00:27:04,VALID,1008.79,VALID,0,INVALID,121.524,VALID,0,VALID,24.0253,VALID,61,VALID,0,
2014-11-02, 00:28:04,VALID,1008.79,VALID,0,INVALID,121.776,VALID,0,VALID,24.0253,VALID,61,VALID,0,
2014-11-02, 00:29:04,VALID,1008.79,VALID,0,INVALID,121.829,VALID,0,VALID,24.0058,VALID,61,VALID,0,
2014-11-02, 00:30:04,VALID,1008.76,VALID,0,INVALID,121.821,VALID,0,VALID,24.0253,VALID,61,VALID,0,
2014-11-02, 00:31:04,VALID,1008.76,VALID,0,INVALID,121.852,VALID,0,VALID,24.0058,VALID,61,VALID,0,
2014-11-02, 00:32:04,VALID,1008.73,VALID,0,INVALID,121.913,VALID,0,VALID,23.9863,VALID,61,VALID,0,
2014-11-02, 00:33:04,VALID,1008.71,VALID,0,INVALID,121.982,VALID,0,VALID,23.9668,VALID,61,VALID,0,
2014-11-02, 00:34:04,VALID,1008.68,VALID,0,INVALID,122.21,VALID,0,VALID,23.9668,VALID,61,VALID,0,
2014-11-02, 00:35:04,VALID,1008.67,VALID,0,INVALID,122.546,VALID,0,VALID,23.9455,VALID,61,VALID,0,
2014-11-02, 00:36:04,VALID,1008.67,VALID,0,INVALID,123.217,VALID,0,VALID,23.926,VALID,61,VALID,0,
2014-11-02, 00:37:04,VALID,1008.63,VALID,0,INVALID,124.231,VALID,0,VALID,23.9278,VALID,61,VALID,0,
2014-11-02, 00:38:04,VALID,1008.65,VALID,0,INVALID,125.184,VALID,0,VALID,23.9473,VALID,61,VALID,0,
2014-11-02, 00:39:04,VALID,1008.63,VALID,0,INVALID,125.543,VALID,0,VALID,23.9278,VALID,61,VALID,0,
2014-11-02, 00:40:04,VALID,1008.61,VALID,0,INVALID,126.458,VALID,0,VALID,23.9065,VALID,61,VALID,0,
2014-11-02, 00:41:04,VALID,1008.61,VALID,0,INVALID,127.182,VALID,0,VALID,23.9084,VALID,61,VALID,0,
2014-11-02, 00:42:04,VALID,1008.64,VALID,0,INVALID,127.892,VALID,0,VALID,23.9084,VALID,61,VALID,0,
2014-11-02, 00:43:04,VALID,1008.62,VALID,0,INVALID,128.311,VALID,0,VALID,23.9084,VALID,61,VALID,0,
2014-11-02, 00:44:04,VALID,1008.59,VALID,0,INVALID,128.662,VALID,0,VALID,23.9102,VALID,61,VALID,0,
2014-11-02, 00:45:04,VALID,1008.58,VALID,0,INVALID,128.89,VALID,0,VALID,23.8889,VALID,61,VALID,0,
2014-11-02, 00:46:04,VALID,1008.56,VALID,0,INVALID,129.851,VALID,0,VALID,23.8889,VALID,61,VALID,0,
2014-11-02, 00:47:04,VALID,1008.54,VALID,0,INVALID,131.773,VALID,0,VALID,23.8889,VALID,61,VALID,0,
2014-11-02, 00:48:04,VALID,1008.55,VALID,0,INVALID,132.986,VALID,0,VALID,23.8889,VALID,61,VALID,0,
2014-11-02, 00:49:04,VALID,1008.52,VALID,0,INVALID,134.351,VALID,0,VALID,23.9084,VALID,61,VALID,0,
2014-11-02, 00:50:04,VALID,1008.52,VALID,0,INVALID,135.159,VALID,0,VALID,23.9084,VALID,61,VALID,0,
2014-11-02, 00:51:04,VALID,1008.52,VALID,0,INVALID,135.548,VALID,0,VALID,23.9084,VALID,61,VALID,0,
2014-11-02, 00:52:04,VALID,1008.5,VALID,0,INVALID,135.868,VALID,0,VALID,23.8889,VALID,61,VALID,0,
2014-11-02, 00:53:04,VALID,1008.5,VALID,0,INVALID,136.15,VALID,0,VALID,23.8889,VALID,61,VALID,0,
2014-11-02, 00:54:04,VALID,1008.51,VALID,0,INVALID,136.211,VALID,0,VALID,23.8694,VALID,61,VALID,0,
2014-11-02, 00:55:04,VALID,1008.5,VALID,0,INVALID,136.188,VALID,0,VALID,23.8499,VALID,61,VALID,0,
2014-11-02, 00:56:04,VALID,1008.46,VALID,0,INVALID,136.257,VALID,0,VALID,23.8499,VALID,61,VALID,0,
2014-11-02, 00:57:04,VALID,1008.45,VALID,0,INVALID,136.348,VALID,0,VALID,23.8499,VALID,61,VALID,0,
2014-11-02, 00:58:04,VALID,1008.43,VALID,0,INVALID,136.31,VALID,0,VALID,23.8499,VALID,61,VALID,0,
2014-11-02, 00:59:04,VALID,1008.42,VALID,0,INVALID,136.265,VALID,0,VALID,23.8286,VALID,61,VALID,0,
2014-11-02, 01:00:04,VALID,1008.39,VALID,0,INVALID,136.242,VALID,0,VALID,23.8499,VALID,61,VALID,0,
2014-11-02, 01:01:04,VALID,1008.38,VALID,0,INVALID,136.021,VALID,0,VALID,23.8499,VALID,61,VALID,0,
2014-11-02, 01:02:04,VALID,1008.36,VALID,0,INVALID,135.784,VALID,0,VALID,23.8481,VALID,61,VALID,0,
2014-11-02, 01:03:04,VALID,1008.37,VALID,0,INVALID,135.449,VALID,0,VALID,23.8499,VALID,61,VALID,0,
2014-11-02, 01:04:04,VALID,1008.39,VALID,0,INVALID,135.151,VALID,0,VALID,23.8694,VALID,61,VALID,0,
2014-11-02, 01:05:04,VALID,1008.38,VALID,0,INVALID,134.9,VALID,0.112112,VALID,23.8694,VALID,61,VALID,0,
2014-11-02, 01:06:04,VALID,1008.37,VALID,0,INVALID,134.587,VALID,0,VALID,23.8889,VALID,61,VALID,0,
2014-11-02, 01:07:04,VALID,1008.34,VALID,0,INVALID,134.351,VALID,0,VALID,23.8889,VALID,61,VALID,0,
2014-11-02, 01:08:04,VALID,1008.34,VALID,0,INVALID,134.053,VALID,0,VALID,23.8694,VALID,61,VALID,0,
2014-11-02, 01:09:04,VALID,1008.33,VALID,0,INVALID,134.305,VALID,0,VALID,23.9084,VALID,61,VALID,0,
2014-11-02, 01:10:04,VALID,1008.33,VALID,0,INVALID,134.579,VALID,0,VALID,23.9084,VALID,61,VALID,0,
2014-11-02, 01:11:04,VALID,1008.33,VALID,0,INVALID,134.64,VALID,0,VALID,23.8889,VALID,61,VALID,0,
2014-11-02, 01:12:04,VALID,1008.31,VALID,0,INVALID,134.739,VALID,0,VALID,23.9084,VALID,61,VALID,0,
2014-11-02, 01:13:04,VALID,1008.3,VALID,0,INVALID,134.831,VALID,0,VALID,23.8889,VALID,61,VALID,0,
2014-11-02, 01:14:04,VALID,1008.31,VALID,0,INVALID,134.663,VALID,0,VALID,23.8889,VALID,61,VALID,0,
2014-11-02, 01:15:04,VALID,1008.3,VALID,0,INVALID,134.442,VALID,0,VALID,23.8694,VALID,61,VALID,0,
2014-11-02, 01:16:04,VALID,1008.31,VALID,0,INVALID,134.198,VALID,0,VALID,23.8499,VALID,61,VALID,0,
2014-11-02, 01:17:04,VALID,1008.26,VALID,0,INVALID,133.931,VALID,0,VALID,23.8499,VALID,61,VALID,0,
2014-11-02, 01:18:04,VALID,1008.26,VALID,0,INVALID,133.824,VALID,0,VALID,23.8499,VALID,61,VALID,0,
2014-11-02, 01:19:04,VALID,1008.24,VALID,0,INVALID,133.664,VALID,0,VALID,23.8091,VALID,61,VALID,0,
2014-11-02, 01:20:04,VALID,1008.19,VALID,0,INVALID,133.474,VALID,0,VALID,23.8304,VALID,61,VALID,0,
2014-11-02, 01:21:04,VALID,1008.16,VALID,0,INVALID,133.596,VALID,0,VALID,23.8091,VALID,61,VALID,0,
2014-11-02, 01:22:04,VALID,1008.16,VALID,0,INVALID,133.496,VALID,0,VALID,23.8304,VALID,61,VALID,0,
2014-11-02, 01:23:04,VALID,1008.14,VALID,0,INVALID,133.489,VALID,0,VALID,23.8304,VALID,61,VALID,0,
2014-11-02, 01:24:04,VALID,1008.11,VALID,0,INVALID,133.542,VALID,0,VALID,23.8304,VALID,61,VALID,0,
2014-11-02, 01:25:04,VALID,1008.09,VALID,0,INVALID,133.702,VALID,0,VALID,23.8304,VALID,61,VALID,0,
2014-11-02, 01:26:04,VALID,1008.09,VALID,0,INVALID,133.718,VALID,0,VALID,23.8109,VALID,61,VALID,0,
2014-11-02, 01:27:04,VALID,1008.08,VALID,0,INVALID,133.87,VALID,0,VALID,23.8109,VALID,61,VALID,0,
2014-11-02, 01:28:04,VALID,1008.05,VALID,0,INVALID,134.297,VALID,0,VALID,23.8109,VALID,61,VALID,0,
2014-11-02, 01:29:04,VALID,1008.06,VALID,0,INVALID,134.762,VALID,0,VALID,23.7914,VALID,61,VALID,0,
2014-11-02, 01:30:04,VALID,1008.04,VALID,0,INVALID,135.029,VALID,0,VALID,23.8109,VALID,61,VALID,0,
2014-11-02, 01:31:04,VALID,1008.03,VALID,0,INVALID,135.166,VALID,0.112112,VALID,23.8109,VALID,61,VALID,0,
2014-11-02, 01:32:04,VALID,1008.02,VALID,0,INVALID,135.449,VALID,0,VALID,23.7914,VALID,61,VALID,0,
2014-11-02, 01:33:04,VALID,1007.97,VALID,0,INVALID,135.708,VALID,0,VALID,23.7914,VALID,61,VALID,0,
2014-11-02, 01:34:04,VALID,1007.97,VALID,0,INVALID,136.013,VALID,0,VALID,23.8109,VALID,61,VALID,0,
2014-11-02, 01:35:04,VALID,1007.95,VALID,0,INVALID,136.188,VALID,0,VALID,23.8109,VALID,61,VALID,0,
2014-11-02, 01:36:04,VALID,1007.92,VALID,0,INVALID,136.31,VALID,0,VALID,23.7701,VALID,61,VALID,0,
2014-11-02, 01:37:04,VALID,1007.89,VALID,0,INVALID,136.478,VALID,0,VALID,23.7914,VALID,61,VALID,0,
2014-11-02, 01:38:04,VALID,1007.9,VALID,0,INVALID,136.638,VALID,0.112112,VALID,23.7914,VALID,61,VALID,0,
2014-11-02, 01:39:04,VALID,1007.88,VALID,0,INVALID,136.867,VALID,0,VALID,23.7914,VALID,61,VALID,0,
2014-11-02, 01:40:04,VALID,1007.9,VALID,0,INVALID,137.081,VALID,0,VALID,23.772,VALID,61,VALID,0,
2014-11-02, 01:41:04,VALID,1007.89,VALID,0,INVALID,137.302,VALID,0,VALID,23.772,VALID,61,VALID,0,
2014-11-02, 01:42:04,VALID,1007.9,VALID,0,INVALID,137.416,VALID,0,VALID,23.7914,VALID,61,VALID,0,
2014-11-02, 01:43:04,VALID,1007.86,VALID,0,INVALID,137.523,VALID,0,VALID,23.772,VALID,61,VALID,0,
2014-11-02, 01:44:04,VALID,1007.86,VALID,0,INVALID,137.645,VALID,0,VALID,23.772,VALID,61,VALID,0,
2014-11-02, 01:45:04,VALID,1007.87,VALID,0,INVALID,137.79,VALID,0,VALID,23.7507,VALID,61,VALID,0,
2014-11-02, 01:46:04,VALID,1007.83,VALID,0,INVALID,137.881,VALID,0,VALID,23.7914,VALID,61,VALID,0,
2014-11-02, 01:47:04,VALID,1007.83,VALID,0,INVALID,137.98,VALID,0,VALID,23.7914,VALID,61,VALID,0,
2014-11-02, 01:48:04,VALID,1007.81,VALID,0,INVALID,138.034,VALID,0,VALID,23.7701,VALID,61,VALID,0,
2014-11-02, 01:49:04,VALID,1007.81,VALID,0,INVALID,138.034,VALID,0,VALID,23.7914,VALID,61,VALID,0,
2014-11-02, 01:50:04,VALID,1007.8,VALID,0,INVALID,138.087,VALID,0,VALID,23.7914,VALID,61,VALID,0,
2014-11-02, 01:51:04,VALID,1007.81,VALID,0,INVALID,138.102,VALID,0.112112,VALID,23.7914,VALID,61,VALID,0,
2014-11-02, 01:52:04,VALID,1007.81,VALID,0,INVALID,137.988,VALID,0,VALID,23.7914,VALID,61,VALID,0,
2014-11-02, 01:53:04,VALID,1007.78,VALID,0,INVALID,137.98,VALID,0,VALID,23.8109,VALID,61,VALID,0,
2014-11-02, 01:54:04,VALID,1007.76,VALID,0,INVALID,138.011,VALID,0,VALID,23.7701,VALID,61,VALID,0,
2014-11-02, 01:55:04,VALID,1007.77,VALID,0,INVALID,137.98,VALID,0,VALID,23.7701,VALID,61,VALID,0,
2014-11-02, 01:56:04,VALID,1007.75,VALID,0,INVALID,137.973,VALID,0,VALID,23.772,VALID,61,VALID,0,
2014-11-02, 01:57:04,VALID,1007.74,VALID,0,INVALID,137.927,VALID,0.112112,VALID,23.772,VALID,61,VALID,0,
2014-11-02, 01:58:04,VALID,1007.74,VALID,0,INVALID,137.958,VALID,0,VALID,23.772,VALID,61,VALID,0,
2014-11-02, 01:59:04,VALID,1007.74,VALID,0,INVALID,138.08,VALID,0.112112,VALID,23.7914,VALID,61,VALID,0,
2014-11-02, 02:00:04,VALID,1007.75,VALID,0,INVALID,138.308,VALID,0,VALID,23.7914,VALID,61,VALID,0,
2014-11-02, 02:01:04,VALID,1007.7,VALID,0,INVALID,138.293,VALID,0.112112,VALID,23.7896,VALID,61,VALID,0,
2014-11-02, 02:02:04,VALID,1007.71,VALID,0,INVALID,138.217,VALID,0,VALID,23.8091,VALID,61,VALID,0,
2014-11-02, 02:03:04,VALID,1007.72,VALID,0,INVALID,138.133,VALID,0,VALID,23.8304,VALID,61,VALID,0,
2014-11-02, 02:04:04,VALID,1007.69,VALID,0,INVALID,138.118,VALID,0.112112,VALID,23.8481,VALID,61,VALID,0,
2014-11-02, 02:05:04,VALID,1007.68,VALID,0,INVALID,138.087,VALID,0.112112,VALID,23.8676,VALID,61,VALID,0,
2014-11-02, 02:06:04,VALID,1007.66,VALID,0,INVALID,138.064,VALID,0,VALID,23.8889,VALID,61,VALID,0,
2014-11-02, 02:07:04,VALID,1007.67,VALID,0,INVALID,138.102,VALID,0.112112,VALID,23.8871,VALID,61,VALID,0,
2014-11-02, 02:08:04,VALID,1007.67,VALID,0,INVALID,138.133,VALID,0,VALID,23.9278,VALID,61,VALID,0,
2014-11-02, 02:09:04,VALID,1007.67,VALID,0,INVALID,138.133,VALID,0,VALID,23.926,VALID,61,VALID,0,
2014-11-02, 02:10:04,VALID,1007.68,VALID,0,INVALID,138.171,VALID,0.112112,VALID,23.965,VALID,61,VALID,0,
2014-11-02, 02:11:04,VALID,1007.66,VALID,0,INVALID,138.186,VALID,0.112112,VALID,23.9863,VALID,61,VALID,0,
2014-11-02, 02:12:04,VALID,1007.68,VALID,0,INVALID,138.232,VALID,0.112112,VALID,23.9668,VALID,61,VALID,0,
2014-11-02, 02:13:04,VALID,1007.68,VALID,0,INVALID,138.27,VALID,0,VALID,23.965,VALID,61,VALID,0,
2014-11-02, 02:14:04,VALID,1007.69,VALID,0,INVALID,138.324,VALID,0.112112,VALID,23.965,VALID,61,VALID,0,
2014-11-02, 02:15:04,VALID,1007.69,VALID,0,INVALID,138.385,VALID,0,VALID,23.9863,VALID,61,VALID,0,
2014-11-02, 02:16:04,VALID,1007.7,VALID,0,INVALID,138.4,VALID,0.112112,VALID,23.9845,VALID,61,VALID,0,
2014-11-02, 02:17:04,VALID,1007.69,VALID,0,INVALID,138.392,VALID,0.112112,VALID,24.0058,VALID,61,VALID,0,
2014-11-02, 02:18:04,VALID,1007.71,VALID,0,INVALID,138.4,VALID,0,VALID,23.9845,VALID,61,VALID,0,
2014-11-02, 02:19:04,VALID,1007.74,VALID,0,INVALID,138.468,VALID,0,VALID,23.9845,VALID,61,VALID,0,
2014-11-02, 02:20:04,VALID,1007.73,VALID,0,INVALID,138.484,VALID,0,VALID,24.004,VALID,61,VALID,0,
2014-11-02, 02:21:04,VALID,1007.75,VALID,0,INVALID,138.514,VALID,0.112112,VALID,24.004,VALID,61,VALID,0,
2014-11-02, 02:22:04,VALID,1007.74,VALID,0,INVALID,138.529,VALID,0.112112,VALID,24.004,VALID,61,VALID,0,
2014-11-02, 02:23:04,VALID,1007.79,VALID,0,INVALID,138.606,VALID,0.112112,VALID,24.0253,VALID,61,VALID,0,
2014-11-02, 02:24:04,VALID,1007.76,VALID,0,INVALID,138.568,VALID,0,VALID,24.0058,VALID,61,VALID,0,
2014-11-02, 02:25:04,VALID,1007.78,VALID,0,INVALID,138.674,VALID,0,VALID,24.004,VALID,61,VALID,0.158203,
2014-11-02, 02:26:04,VALID,1007.77,VALID,0,INVALID,138.621,VALID,0.112112,VALID,24.0058,VALID,61,VALID,0.359766,
2014-11-02, 02:27:04,VALID,1007.75,VALID,0,INVALID,138.568,VALID,0,VALID,23.9863,VALID,61,VALID,0.369922,
2014-11-02, 02:28:04,VALID,1007.77,VALID,0,INVALID,138.476,VALID,0.112112,VALID,23.965,VALID,61,VALID,0.324219,
2014-11-02, 02:29:04,VALID,1007.77,VALID,0,INVALID,138.537,VALID,0,VALID,23.9455,VALID,61,VALID,0.184375,
2014-11-02, 02:30:04,VALID,1007.77,VALID,0,INVALID,138.697,VALID,0,VALID,23.9455,VALID,61,VALID,0,
2014-11-02, 02:31:04,VALID,1007.76,VALID,0,INVALID,138.781,VALID,0,VALID,23.926,VALID,61,VALID,0,
2014-11-02, 02:32:04,VALID,1007.79,VALID,0,INVALID,138.873,VALID,0,VALID,23.9278,VALID,61,VALID,0,
2014-11-02, 02:33:04,VALID,1007.78,VALID,0,INVALID,138.888,VALID,0,VALID,23.9065,VALID,61,VALID,0,
2014-11-02, 02:34:04,VALID,1007.79,VALID,0,INVALID,138.949,VALID,0,VALID,23.9065,VALID,61,VALID,0,
2014-11-02, 02:35:04,VALID,1007.78,VALID,0,INVALID,139.033,VALID,0,VALID,23.9278,VALID,61,VALID,0,
2014-11-02, 02:36:04,VALID,1007.81,VALID,0,INVALID,139.025,VALID,0.112112,VALID,23.9065,VALID,61,VALID,0,
2014-11-02, 02:37:04,VALID,1007.76,VALID,0,INVALID,139.04,VALID,0,VALID,23.9278,VALID,61,VALID,0,
2014-11-02, 02:38:04,VALID,1007.79,VALID,0,INVALID,139.033,VALID,0,VALID,23.9278,VALID,61,VALID,0,
2014-11-02, 02:39:04,VALID,1007.79,VALID,0,INVALID,139.056,VALID,0.112112,VALID,23.9278,VALID,61,VALID,0,
2014-11-02, 02:40:04,VALID,1007.79,VALID,0,INVALID,139.056,VALID,0,VALID,23.9278,VALID,61,VALID,0,
2014-11-02, 02:41:04,VALID,1007.8,VALID,0,INVALID,139.04,VALID,0.112112,VALID,23.9065,VALID,61,VALID,0,
2014-11-02, 02:42:04,VALID,1007.82,VALID,0,INVALID,139.033,VALID,0.112112,VALID,23.9473,VALID,61,VALID,0,
2014-11-02, 02:43:04,VALID,1007.8,VALID,0,INVALID,139.025,VALID,0,VALID,23.9473,VALID,61,VALID,0,
2014-11-02, 02:44:04,VALID,1007.83,VALID,0,INVALID,139.048,VALID,0.112112,VALID,23.9473,VALID,61,VALID,0,
2014-11-02, 02:45:04,VALID,1007.82,VALID,0,INVALID,139.002,VALID,0.112112,VALID,23.9065,VALID,61,VALID,0,
2014-11-02, 02:46:04,VALID,1007.81,VALID,0,INVALID,139.048,VALID,0.112112,VALID,23.926,VALID,61,VALID,0,
2014-11-02, 02:47:04,VALID,1007.81,VALID,0,INVALID,138.979,VALID,0.112112,VALID,23.9473,VALID,61,VALID,0,
2014-11-02, 02:48:04,VALID,1007.82,VALID,0,INVALID,138.941,VALID,0,VALID,23.9473,VALID,61,VALID,0,
2014-11-02, 02:49:04,VALID,1007.81,VALID,0,INVALID,138.979,VALID,0.112112,VALID,23.9668,VALID,61,VALID,0,
2014-11-02, 02:50:04,VALID,1007.83,VALID,0,INVALID,138.88,VALID,0,VALID,23.9668,VALID,61,VALID,0,
2014-11-02, 02:51:04,VALID,1007.79,VALID,0,INVALID,138.85,VALID,0,VALID,23.9473,VALID,61,VALID,0,
2014-11-02, 02:52:05,VALID,1007.79,VALID,0,INVALID,138.873,VALID,0.112112,VALID,23.9668,VALID,61,VALID,0,
2014-11-02, 02:53:05,VALID,1007.81,VALID,0,INVALID,138.865,VALID,0.112112,VALID,23.9668,VALID,61,VALID,0,
2014-11-02, 02:54:05,VALID,1007.79,VALID,0,INVALID,138.812,VALID,0.112112,VALID,23.9473,VALID,61,VALID,0,
2014-11-02, 02:55:05,VALID,1007.79,VALID,0,INVALID,138.85,VALID,0,VALID,23.9473,VALID,61,VALID,0,
2014-11-02, 02:56:05,VALID,1007.79,VALID,0,INVALID,138.834,VALID,0,VALID,23.9455,VALID,61,VALID,0,
2014-11-02, 02:57:05,VALID,1007.79,VALID,0,INVALID,138.796,VALID,0.112112,VALID,23.9668,VALID,61,VALID,0,
2014-11-02, 02:58:05,VALID,1007.78,VALID,0,INVALID,138.804,VALID,0,VALID,23.9668,VALID,61,VALID,0,
2014-11-02, 02:59:05,VALID,1007.76,VALID,0,INVALID,138.758,VALID,0,VALID,23.9668,VALID,61,VALID,0,
2014-11-02, 03:00:05,VALID,1007.76,VALID,0,INVALID,138.72,VALID,0,VALID,23.9473,VALID,61,VALID,0,
2014-11-02, 03:01:05,VALID,1007.77,VALID,0,INVALID,138.773,VALID,0,VALID,23.9473,VALID,61,VALID,0,
2014-11-02, 03:02:05,VALID,1007.78,VALID,0,INVALID,138.743,VALID,0,VALID,23.9473,VALID,61,VALID,0,
2014-11-02, 03:03:05,VALID,1007.79,VALID,0,INVALID,138.728,VALID,0,VALID,23.9278,VALID,61,VALID,0,
2014-11-02, 03:04:05,VALID,1007.79,VALID,0,INVALID,138.712,VALID,0,VALID,23.9278,VALID,61,VALID,0,
2014-11-02, 03:05:05,VALID,1007.81,VALID,0,INVALID,138.705,VALID,0,VALID,23.9278,VALID,61,VALID,0,
2014-11-02, 03:06:05,VALID,1007.81,VALID,0,INVALID,138.651,VALID,0,VALID,23.9278,VALID,61,VALID,0,
2014-11-02, 03:07:05,VALID,1007.81,VALID,0,INVALID,138.636,VALID,0,VALID,23.9084,VALID,61,VALID,0,
2014-11-02, 03:08:05,VALID,1007.81,VALID,0,INVALID,138.667,VALID,0,VALID,23.8889,VALID,61,VALID,0,
2014-11-02, 03:09:05,VALID,1007.84,VALID,0,INVALID,138.712,VALID,0,VALID,23.8694,VALID,61,VALID,0,
2014-11-02, 03:10:05,VALID,1007.82,VALID,0,INVALID,138.728,VALID,0,VALID,23.8889,VALID,61,VALID,0,
2014-11-02, 03:11:05,VALID,1007.85,VALID,0,INVALID,138.674,VALID,0,VALID,23.9084,VALID,61,VALID,0,
2014-11-02, 03:12:05,VALID,1007.85,VALID,0,INVALID,138.606,VALID,0,VALID,23.9084,VALID,61,VALID,0,
2014-11-02, 03:13:05,VALID,1007.85,VALID,0,INVALID,138.537,VALID,0,VALID,23.9065,VALID,61,VALID,0,
2014-11-02, 03:14:05,VALID,1007.85,VALID,0,INVALID,138.453,VALID,0,VALID,23.9473,VALID,61,VALID,0,
2014-11-02, 03:15:05,VALID,1007.87,VALID,0,INVALID,138.369,VALID,0,VALID,23.9473,VALID,61,VALID,0,
2014-11-02, 03:16:05,VALID,1007.86,VALID,0,INVALID,138.369,VALID,0,VALID,23.9473,VALID,61,VALID,0,
2014-11-02, 03:17:05,VALID,1007.86,VALID,0,INVALID,138.362,VALID,0,VALID,23.9491,VALID,61,VALID,0,
2014-11-02, 03:18:05,VALID,1007.86,VALID,0,INVALID,138.354,VALID,0,VALID,23.9278,VALID,61,VALID,0,
2014-11-02, 03:19:05,VALID,1007.89,VALID,0,INVALID,138.346,VALID,0,VALID,23.9491,VALID,61,VALID,0,
2014-11-02, 03:20:05,VALID,1007.86,VALID,0,INVALID,138.324,VALID,0,VALID,23.9473,VALID,61,VALID,0,
2014-11-02, 03:21:05,VALID,1007.87,VALID,0,INVALID,138.293,VALID,0,VALID,23.9473,VALID,61,VALID,0,
2014-11-02, 03:22:05,VALID,1007.85,VALID,0,INVALID,138.293,VALID,0,VALID,23.9473,VALID,61,VALID,0,
2014-11-02, 03:23:05,VALID,1007.85,VALID,0,INVALID,138.301,VALID,0,VALID,23.9473,VALID,61,VALID,0.0640625,
2014-11-02, 03:24:05,VALID,1007.84,VALID,0,INVALID,138.331,VALID,0,VALID,23.9278,VALID,61,VALID,0,
2014-11-02, 03:25:05,VALID,1007.8,VALID,0,INVALID,138.369,VALID,0,VALID,23.9278,VALID,61,VALID,0,
2014-11-02, 03:26:05,VALID,1007.83,VALID,0,INVALID,138.392,VALID,0,VALID,23.9278,VALID,61,VALID,0,
2014-11-02, 03:27:05,VALID,1007.84,VALID,0,INVALID,138.423,VALID,0,VALID,23.8871,VALID,61,VALID,0,
2014-11-02, 03:28:05,VALID,1007.87,VALID,0,INVALID,138.461,VALID,0,VALID,23.9084,VALID,61,VALID,0,
2014-11-02, 03:29:05,VALID,1007.88,VALID,0,INVALID,138.476,VALID,0,VALID,23.9084,VALID,61,VALID,0,
2014-11-02, 03:30:05,VALID,1007.87,VALID,0,INVALID,138.4,VALID,0,VALID,23.9278,VALID,61,VALID,0,
2014-11-02, 03:31:05,VALID,1007.9,VALID,0,INVALID,138.392,VALID,0,VALID,23.9278,VALID,61,VALID,0,
2014-11-02, 03:32:05,VALID,1007.9,VALID,0,INVALID,138.415,VALID,0,VALID,23.9278,VALID,61,VALID,0,
2014-11-02, 03:33:05,VALID,1007.91,VALID,0,INVALID,138.407,VALID,0,VALID,23.9278,VALID,61,VALID,0,
2014-11-02, 03:34:05,VALID,1007.93,VALID,0,INVALID,138.446,VALID,0,VALID,23.9473,VALID,61,VALID,0,
2014-11-02, 03:35:05,VALID,1007.96,VALID,0,INVALID,138.514,VALID,0,VALID,23.9278,VALID,61,VALID,0,
2014-11-02, 03:36:05,VALID,1007.98,VALID,0,INVALID,138.545,VALID,0,VALID,23.9084,VALID,61,VALID,0,
2014-11-02, 03:37:05,VALID,1007.99,VALID,0,INVALID,138.552,VALID,0,VALID,23.9297,VALID,61,VALID,0,
2014-11-02, 03:38:05,VALID,1007.98,VALID,0,INVALID,138.621,VALID,0,VALID,23.9084,VALID,61,VALID,0,
2014-11-02, 03:39:05,VALID,1008.01,VALID,0,INVALID,138.674,VALID,0,VALID,23.8889,VALID,61,VALID,0,
2014-11-02, 03:40:05,VALID,1008,VALID,0,INVALID,138.651,VALID,0,VALID,23.8889,VALID,61,VALID,0.0234375,
2014-11-02, 03:41:05,VALID,1008.03,VALID,0,INVALID,138.659,VALID,0,VALID,23.8889,VALID,61,VALID,0,
2014-11-02, 03:42:05,VALID,1008.07,VALID,0,INVALID,138.644,VALID,0,VALID,23.8889,VALID,61,VALID,0,
2014-11-02, 03:43:05,VALID,1008.06,VALID,0,INVALID,138.674,VALID,0,VALID,23.8694,VALID,61,VALID,0,
2014-11-02, 03:44:05,VALID,1008.1,VALID,0,INVALID,138.575,VALID,0,VALID,23.8694,VALID,61,VALID,0,
2014-11-02, 03:45:05,VALID,1008.11,VALID,0,INVALID,138.575,VALID,0,VALID,23.8889,VALID,61,VALID,0,
2014-11-02, 03:46:05,VALID,1008.11,VALID,0,INVALID,138.59,VALID,0,VALID,23.8694,VALID,61,VALID,0,
2014-11-02, 03:47:05,VALID,1008.11,VALID,0,INVALID,138.575,VALID,0,VALID,23.8694,VALID,61,VALID,0,
2014-11-02, 03:48:05,VALID,1008.14,VALID,0,INVALID,138.499,VALID,0,VALID,23.8694,VALID,61,VALID,0,
2014-11-02, 03:49:05,VALID,1008.15,VALID,0,INVALID,138.491,VALID,0,VALID,23.8481,VALID,61,VALID,0,
2014-11-02, 03:50:05,VALID,1008.14,VALID,0,INVALID,138.369,VALID,0,VALID,23.8694,VALID,61,VALID,0,
2014-11-02, 03:51:05,VALID,1008.16,VALID,0,INVALID,138.263,VALID,0,VALID,23.8889,VALID,61,VALID,0,
2014-11-02, 03:52:05,VALID,1008.18,VALID,0,INVALID,138.217,VALID,0,VALID,23.8889,VALID,61,VALID,0,
2014-11-02, 03:53:05,VALID,1008.2,VALID,0,INVALID,138.133,VALID,0,VALID,23.8889,VALID,61,VALID,0,
2014-11-02, 03:54:05,VALID,1008.2,VALID,0,INVALID,138.148,VALID,0,VALID,23.8889,VALID,61,VALID,0,